Nome, AK

2:45 PM AKDT on August 22, 2017 (GMT -0800)
Nome

Weather History for PAOM - December, 2011

Change the Weather History Date:

Saturday, December 10, 2011

  Actual Average Record
Temperature  
Mean Temperature 27 °F 11 °F  
Max Temperature 31 °F 18 °F 39 °F (1985)
Min Temperature 22 °F 4 °F -40 °F (1975)
Degree Days  
Heating Degree Days 38 54  
Month to date heating degree days 501 534  
Since 1 July heating degree days 4971 4627  
Cooling Degree Days 0 0  
Month to date cooling degree days 0 0  
Year to date cooling degree days 0 3  
Moisture  
Dew Point 26 °F    
Average Humidity 0    
Maximum Humidity 0    
Minimum Humidity 0    
Precipitation  
Precipitation 0.37 in 0.04 in 0.94 in (1932)
Month to date precipitation 1.86 0.34  
Year to date precipitation 18.14 16.07  
Snow  
Snow 4.50 in 0.40 in 4.50 in (2011)
Month to date snowfall 23.1 4.2  
Since 1 July snowfall 39.6 21.5  
Snow Depth 20.00 in    
Sea Level Pressure  
Sea Level Pressure 29.14 in    
Wind  
Wind Speed 32 mph (East)    
Max Wind Speed 45 mph    
Max Gust Speed 53 mph    
Visibility 2 miles    
Events Fog , Snow    
T = Trace of Precipitation, MM = Missing Value Source: NWS Daily Summary

Daily Weather History Graph

Daily Weather History Graph

Search for Another Location

Airport or City:

Trip Planner

Search our weather history database for the weather conditions in past years. The results will help you decide how hot, cold, wet, or windy it might be!

Date:

Astronomy

Dec. 10, 2011 Rise Set
Actual Time 11:47 AM AKST 4:01 PM AKST
Civil Twilight 10:28 AM AKST 5:20 PM AKST
Nautical Twilight 9:19 AM AKST 6:29 PM AKST
Astronomical Twilight 8:19 AM AKST 7:29 PM AKST
Moon 4:17 PM AKST (12/10) 12:08 PM AKST (12/10)
Length of Visible Light 6h 51m
Length of Day
4h 13m
Full, 100% of the Moon is Illuminated
Dec 10
Full
Dec 17
Last Quarter
Dec 24
New
Dec 31
First Quarter
Jan 8
Full

Hourly Weather History & Observations

Time (AKST) Temp. Windchill Dew Point Humidity Pressure Visibility Wind Dir Wind Speed Gust Speed Precip Events Conditions
12:18 AM 21.2 °F 4.9 °F 21.2 °F 100% 29.66 in 0.5 mi East 23.0 mph 31.1 mph 0.01 in Fog , Snow Snow
12:53 AM 23.0 °F 7.2 °F 21.9 °F 96% 29.64 in 0.5 mi East 23.0 mph 33.4 mph 0.03 in Snow Snow
1:00 AM 23.0 °F 7.2 °F 21.2 °F 93% 29.64 in 0.8 mi East 23.0 mph 31.1 mph 0.00 in Snow Light Snow
1:38 AM 24.8 °F 10.0 °F 23.0 °F 93% 29.61 in 1.0 mi East 21.9 mph - 0.01 in Snow Light Snow
1:49 AM 24.8 °F 9.6 °F 24.8 °F 100% 29.60 in 1.2 mi East 23.0 mph 28.8 mph 0.01 in Snow Light Snow
1:53 AM 25.0 °F 10.2 °F 24.1 °F 96% 29.60 in 1.2 mi East 21.9 mph 29.9 mph 0.01 in Snow Blowing Snow
2:40 AM 28.4 °F 13.8 °F 26.6 °F 93% 29.56 in 3.0 mi East 25.3 mph 32.2 mph N/A Snow Blowing Snow
2:53 AM 28.0 °F 13.9 °F 27.0 °F 96% 29.57 in 4.0 mi East 23.0 mph 29.9 mph N/A Snow Blowing Snow
3:44 AM 28.4 °F 14.1 °F 26.6 °F 93% 29.55 in 6.0 mi East 24.2 mph - N/A   Overcast
3:53 AM 28.0 °F 13.9 °F 27.0 °F 96% 29.54 in 7.0 mi East 23.0 mph - N/A   Overcast
4:07 AM 28.4 °F 14.4 °F 26.6 °F 93% 29.53 in 7.0 mi East 23.0 mph - N/A   Overcast
4:46 AM 26.6 °F 12.0 °F 26.6 °F 100% 29.49 in 5.0 mi East 23.0 mph 35.7 mph 0.00 in   Partly Cloudy
4:53 AM 27.0 °F 11.9 °F 26.1 °F 96% 29.49 in 4.0 mi East 25.3 mph 33.4 mph 0.00 in Snow Blowing Snow
5:53 AM 26.1 °F 10.1 °F 25.0 °F 96% 29.44 in 3.0 mi East 27.6 mph - N/A Snow Blowing Snow
6:51 AM 26.6 °F 10.3 °F 24.8 °F 93% 29.37 in 4.0 mi East 29.9 mph 48.3 mph N/A Snow Blowing Snow
6:53 AM 27.0 °F 11.6 °F 25.0 °F 92% 29.38 in 4.0 mi East 26.5 mph 48.3 mph N/A Snow Blowing Snow
7:53 AM 28.0 °F 12.5 °F 25.0 °F 88% 29.33 in 4.0 mi East 28.8 mph 41.4 mph N/A Snow Blowing Snow
8:53 AM 27.0 °F 9.8 °F 24.1 °F 89% 29.28 in 4.0 mi East 34.5 mph 40.3 mph N/A Snow Blowing Snow
9:35 AM 26.6 °F 9.3 °F 24.8 °F 93% 29.24 in 0.5 mi East 34.5 mph 43.7 mph 0.00 in Snow Snow
9:36 AM 26.6 °F 9.1 °F 24.8 °F 93% 29.24 in 0.5 mi East 35.7 mph 43.7 mph 0.00 in Snow Snow
9:44 AM 26.6 °F 9.1 °F 24.8 °F 93% 29.23 in 0.2 mi East 35.7 mph 44.9 mph 0.01 in Snow Heavy Snow
9:51 AM 26.6 °F 8.9 °F 24.8 °F 93% 29.22 in 0.2 mi East 36.8 mph 44.9 mph 0.01 in Snow Heavy Snow
9:53 AM 26.1 °F 8.1 °F 25.0 °F 96% 29.23 in 0.2 mi East 36.8 mph 44.9 mph 0.01 in Snow Heavy Snow
10:53 AM 26.1 °F 8.1 °F 25.0 °F 96% 29.17 in 0.2 mi East 36.8 mph 43.7 mph 0.03 in Snow Heavy Snow
11:53 AM 26.1 °F 8.1 °F 25.0 °F 96% 29.11 in 0.2 mi East 36.8 mph 48.3 mph 0.03 in Snow Snow
12:53 PM 25.0 °F 5.8 °F 25.0 °F 100% 29.07 in 0.2 mi East 41.4 mph 51.8 mph 0.02 in Snow Snow
1:10 PM 26.6 °F 9.1 °F 24.8 °F 93% 29.05 in 0.2 mi East 35.7 mph 47.2 mph 0.02 in Snow Snow
1:34 PM 26.6 °F 8.7 °F 24.8 °F 93% 29.03 in 0.2 mi East 38.0 mph 48.3 mph 0.02 in Snow Snow
1:53 PM 26.1 °F 7.9 °F 25.0 °F 96% 29.02 in 0.2 mi East 38.0 mph 47.2 mph 0.03 in Snow Snow
2:29 PM 26.6 °F 9.1 °F 24.8 °F 93% 28.98 in 0.2 mi East 35.7 mph 49.5 mph 0.02 in Snow Snow
2:51 PM 26.6 °F 8.7 °F 24.8 °F 93% 28.97 in 0.2 mi East 38.0 mph 48.3 mph 0.03 in Snow Snow
2:53 PM 26.1 °F 8.4 °F 25.0 °F 96% 28.97 in 0.2 mi East 35.7 mph 48.3 mph 0.03 in Snow Snow
3:53 PM 26.1 °F 7.9 °F 26.1 °F 100% 28.91 in 0.2 mi East 38.0 mph 48.3 mph 0.03 in Snow Snow
4:09 PM 26.6 °F 8.9 °F 26.6 °F 100% 28.90 in 0.2 mi East 36.8 mph 49.5 mph 0.00 in Snow Snow
4:53 PM 28.0 °F 10.3 °F 27.0 °F 96% 28.87 in 0.2 mi East 40.3 mph 50.6 mph 0.02 in Snow Snow
5:06 PM 28.4 °F 10.8 °F 26.6 °F 93% 28.85 in 0.2 mi East 40.3 mph 49.5 mph 0.01 in Snow Snow
5:29 PM 26.6 °F 8.1 °F 26.6 °F 100% 28.84 in 0.2 mi East 41.4 mph 50.6 mph 0.01 in Snow Snow
5:53 PM 27.0 °F 9.2 °F 27.0 °F 100% 28.83 in 0.2 mi East 38.0 mph 50.6 mph 0.03 in Snow Snow
6:53 PM 28.0 °F 10.9 °F 28.0 °F 100% 28.80 in 0.2 mi East 36.8 mph 48.3 mph 0.03 in Snow Snow
7:53 PM 28.9 °F 11.9 °F 28.9 °F 100% 28.78 in 0.5 mi East 38.0 mph 47.2 mph 0.05 in Snow Snow
8:37 PM 28.4 °F 11.8 °F 28.4 °F 100% 28.77 in 0.8 mi ESE 34.5 mph 42.6 mph 0.02 in Snow Snow
8:51 PM 28.4 °F 11.8 °F 28.4 °F 100% 28.76 in 0.5 mi ESE 34.5 mph 41.4 mph 0.02 in Snow Snow
8:53 PM 28.9 °F 12.1 °F 28.9 °F 100% 28.77 in 0.5 mi East 36.8 mph 44.9 mph 0.02 in Snow Snow
9:22 PM 30.2 °F 13.9 °F 30.2 °F 100% 28.76 in 0.8 mi ESE 36.8 mph 43.7 mph 0.00 in Snow Light Snow
9:53 PM 30.9 °F 16.2 °F 30.9 °F 100% 28.77 in 0.8 mi ESE 29.9 mph 39.1 mph 0.00 in Snow Blowing Snow
10:00 PM 30.2 °F 15.2 °F 30.2 °F 100% 28.77 in 1.0 mi ESE 29.9 mph 42.6 mph 0.00 in Snow Light Snow
10:22 PM 28.4 °F 15.4 °F 28.4 °F 100% 28.79 in 2.0 mi South 19.6 mph 27.6 mph 0.00 in Snow Light Snow
10:33 PM 28.4 °F 12.7 °F 28.4 °F 100% 28.81 in 2.0 mi SW 29.9 mph 36.8 mph 0.00 in Snow Light Snow
10:53 PM 28.9 °F 14.8 °F 28.9 °F 100% 28.86 in 3.0 mi SSW 24.2 mph 33.4 mph 0.00 in Snow Blowing Snow
11:13 PM 28.4 °F 15.4 °F 28.4 °F 100% 28.88 in 1.2 mi SSW 19.6 mph 26.5 mph 0.00 in Snow Light Snow
11:33 PM 30.2 °F 17.8 °F 28.4 °F 93% 28.90 in 1.8 mi South 19.6 mph 26.5 mph 0.00 in Snow Light Snow
11:53 PM 30.0 °F 18.3 °F 28.9 °F 96% 28.93 in 3.0 mi South 17.3 mph - 0.00 in Snow Light Snow